Location: ?????
(31.8092°N, 35.2590°E)
Time: 03:22:57
(UTC+00:00)

Cosmos 2360 Rocket - Pass Details

Date: 23 October 2021
Orbit: 832 x 846 km, 71.0° (Epoch: 07 December)

Event Time Altitude Azimuth Distance (km) Brightness Sun altitude
Rises 16:44:00 0° 213° (SSW) 3,368 5.8 -23.2°
Reaches altitude 10° 16:46:30 10° 219° (SW) 2,440 5.1 -23.7°
Maximum altitude 16:51:54 48° 293° (WNW) 1,082 3.1 -24.9°
Drops below altitude 10° 16:57:21 10° 8° (N) 2,461 4.5 -26.0°
Enters shadow 16:59:01 - 12° (NNE) 3,074 5.0 -26.4°
